Weather History for South Lake Tahoe, CA

Change the Weather History Date:

Thursday, October 10, 2013

  Actual Average Record
Temperature  
Mean Temperature 45 °F 47 °F  
Max Temperature 60 °F 65 °F 81 °F (1996)
Min Temperature 29 °F 29 °F 17 °F (1985)
Degree Days  
Heating Degree Days 20 18  
Month to date heating degree days 196 166  
Since 1 July heating degree days 624 792  
Cooling Degree Days 0 0  
Month to date cooling degree days 0 0  
Year to date cooling degree days 104 31  
Moisture  
Dew Point 27 °F    
Average Humidity 55    
Maximum Humidity 85    
Minimum Humidity 25    
Precipitation  
Precipitation 0.00 in - 1.02 in (1975)
Month to date precipitation 0.04  
Year to date precipitation 7.19  
Sea Level Pressure  
Sea Level Pressure 29.90 in    
Wind  
Wind Speed 2 mph (South)    
Max Wind Speed 15 mph    
Max Gust Speed 21 mph    
Visibility 10 miles    
Events      
T = Trace of Precipitation, MM = Missing Value Source: NWS Daily Summary

Daily Weather History Graph

Daily Weather History Graph

Search for Another Location

Airport:

Trip Planner

Search our weather history database for the weather conditions in past years. The results will help you decide how hot, cold, wet, or windy it might be!

Date:

Astronomy

Oct. 10, 2013 Rise Set
Actual Time 7:04 AM PDT 6:28 PM PDT
Civil Twilight 6:38 AM PDT 6:54 PM PDT
Nautical Twilight 6:07 AM PDT 7:25 PM PDT
Astronomical Twilight 5:36 AM PDT 7:56 PM PDT
Moon 12:58 PM PDT (10/10) 11:13 PM PDT (10/10)
Length of Visible Light 12h 16m
Length of Day
11h 23m
Waxing Crescent, 37% of the Moon is Illuminated
Oct 10
Waxing Crescent
Oct 11
First Quarter
Oct 18
Full
Oct 26
Last Quarter
Nov 3
New

Hourly Weather History & Observations

Time (PDT) Temp. Windchill Dew Point Humidity Pressure Visibility Wind Dir Wind Speed Gust Speed Precip Events Conditions
12:53 AM 34.0 °F - 27.0 °F 75% 29.80 in 10.0 mi Calm Calm - N/A   Clear
1:53 AM 33.1 °F - 26.1 °F 75% 29.79 in 10.0 mi Calm Calm - N/A   Clear
2:53 AM 32.0 °F - 26.1 °F 79% 29.81 in 10.0 mi Calm Calm - N/A   Clear
3:53 AM 30.0 °F - 24.1 °F 79% 29.84 in 10.0 mi Calm Calm - N/A   Clear
4:53 AM 30.0 °F 25.2 °F 25.0 °F 82% 29.82 in 10.0 mi SSW 4.6 mph - N/A   Scattered Clouds
5:53 AM 28.9 °F - 24.1 °F 82% 29.85 in 10.0 mi Calm Calm - N/A   Clear
6:53 AM 28.9 °F 25.2 °F 24.1 °F 82% 29.87 in 10.0 mi SSW 3.5 mph - N/A   Clear
7:53 AM 30.0 °F - 25.0 °F 82% 29.88 in 10.0 mi Calm Calm - N/A   Clear
8:53 AM 36.0 °F 31.1 °F 28.0 °F 73% 29.87 in 10.0 mi South 5.8 mph - N/A   Clear
9:53 AM 46.0 °F - 30.0 °F 54% 29.86 in 10.0 mi Calm Calm - N/A   Clear
10:53 AM 51.1 °F - 27.0 °F 39% 29.85 in 10.0 mi ENE 4.6 mph - N/A   Clear
11:53 AM 55.0 °F - 27.0 °F 34% 29.85 in 10.0 mi Calm Calm - N/A   Clear
12:53 PM 57.9 °F - 28.0 °F 32% 29.85 in 10.0 mi NNE 9.2 mph - N/A   Scattered Clouds
1:53 PM 60.1 °F - 25.0 °F 26% 29.85 in 10.0 mi Calm Calm - N/A   Mostly Cloudy
2:53 PM 57.0 °F - 23.0 °F 27% 29.89 in 10.0 mi Calm Calm - N/A   Mostly Cloudy
3:53 PM 55.0 °F - 27.0 °F 34% 29.91 in 10.0 mi SSW 8.1 mph 19.6 mph N/A   Partly Cloudy
4:53 PM 55.0 °F - 27.0 °F 34% 29.93 in 10.0 mi Calm Calm - N/A   Clear
5:53 PM 51.1 °F - 30.9 °F 46% 29.95 in 10.0 mi SSW 5.8 mph - N/A   Clear
6:53 PM 46.9 °F - 32.0 °F 56% 29.98 in 10.0 mi South 6.9 mph - N/A   Clear
7:53 PM 45.0 °F 41.8 °F 32.0 °F 60% 29.99 in 10.0 mi South 5.8 mph - N/A   Clear
8:53 PM 42.1 °F - 30.9 °F 65% 30.02 in 10.0 mi Calm Calm - N/A   Clear
9:53 PM 37.9 °F - 30.0 °F 73% 30.01 in 10.0 mi Calm Calm - N/A   Clear
10:53 PM 36.0 °F - 28.9 °F 76% 30.01 in 10.0 mi Calm Calm - N/A   Clear
11:53 PM 33.1 °F - 27.0 °F 78% 30.01 in 10.0 mi Calm Calm - N/A   Clear